W7YP Weather Reports


time (UTC)temp
F
wind
direction
speed
knots
gust
knots
rain 1hr
in
rain 24hr
in
rain mn
in
humidity
%
barometer
mb
20260831191852 68 290 0.9 5.2 0.00 0.01 0.00 51 1018.8
20260831191353 68 182 0.0 5.2 0.00 0.02 0.00 53 1018.9
20260831190848 67 44 0.0 6.1 0.00 0.02 0.00 54 1018.9
20260831190347 67 57 0.9 6.1 0.00 0.02 0.00 49 1019.1
20260831190101 67 273 0.9 2.6 0.00 0.03 0.00 53 1019.1
20260831185333 67 301 0.0 3.5 0.00 0.04 0.00 55 1019.1
20260831184833 67 301 0.9 4.3 0.00 0.05 0.00 50 1019.2
20260831184551 67 235 0.9 4.3 0.00 0.06 0.00 53 1019.3
20260831183828 66 326 0.0 2.6 0.00 0.06 0.00 55 1019.3
20260831183323 66 11 0.0 1.7 0.00 0.07 0.00 56 1019.4
20260831182824 65 21 0.0 4.3 0.00 0.08 0.00 59 1019.4
20260831182545 65 11 0.0 4.3 0.00 0.09 0.00 57 1019.4
20260831181824 65 314 0.0 2.6 0.00 0.10 0.00 60 1019.5
20260831181324 65 309 0.0 3.5 0.00 0.11 0.00 59 1019.6
20260831180814 64 340 0.0 3.5 0.00 0.12 0.00 61 1019.7
20260831180312 64 314 0.9 2.6 0.00 0.12 0.00 61 1019.6
20260831175802 64 59 0.0 2.6 0.00 0.14 0.00 62 1019.7
20260831175521 63 269 0.0 2.6 0.00 0.15 0.00 64 1019.6
20260831174755 63 270 0.0 2.6 0.00 0.16 0.00 60 1019.8
20260831174249 64 213 0.0 0.0 0.00 0.17 0.00 61 1019.8
20260831173750 63 213 0.0 0.0 0.00 0.18 0.00 63 1019.8
20260831173250 63 213 0.0 0.0 0.00 0.19 0.00 67 1019.8
20260831172748 63 213 0.0 0.9 0.00 0.21 0.00 72 1019.8
20260831172239 63 213 0.0 0.9 0.00 0.22 0.00 70 1019.8
20260831172218 63 203 0.0 0.9 0.00 0.23 0.00 74 1019.8
20260831171226 62 188 0.0 0.9 0.00 0.23 0.00 77 1019.8
20260831170715 62 188 0.0 0.9 0.00 0.24 0.00 75 1019.9
20260831170216 61 186 0.0 1.7 0.00 0.26 0.00 70 1019.9
20260831165717 61 186 0.0 1.7 0.00 0.27 0.00 70 1019.9
20260831165211 60 157 0.0 0.9 0.00 0.28 0.00 73 1019.9
20260831164937 60 157 0.0 0.9 0.00 0.29 0.00 74 1020.1
20260831164207 60 157 0.0 0.0 0.00 0.30 0.00 75 1019.9
20260831163706 59 157 0.0 0.9 0.00 0.31 0.00 78 1019.9
20260831163207 59 157 0.0 1.7 0.00 0.32 0.00 82 1019.9
20260831162707 59 158 0.0 1.7 0.00 0.33 0.00 80 1019.9
20260831162207 58 276 0.0 1.7 0.00 0.34 0.00 84 1019.9
20260831161935 57 277 0.0 0.0 0.00 0.34 0.00 87 1020.1
20260831161203 57 277 0.0 0.0 0.00 0.35 0.00 90 1019.9
20260831160703 56 277 0.0 1.7 0.00 0.36 0.00 92 1020.1
20260831160203 55 277 0.0 1.7 0.00 0.36 0.00 95 1019.9
20260831155703 55 277 0.0 1.7 0.00 0.37 0.00 96 1020.1
20260831155203 54 278 0.0 0.9 0.00 0.38 0.00 97 1020.1
20260831154900 54 278 0.0 1.7 0.00 0.38 0.00 97 1020.2
20260831154413 53 277 0.0 1.7 0.00 0.38 0.00 98 1020.1
20260831153854 53 279 0.0 0.0 0.00 0.38 0.00 98 1019.9
20260831153134 53 279 0.0 1.7 0.00 0.38 0.00 98 1019.9
20260831152634 53 279 0.0 2.6 0.00 0.38 0.00 98 1020.1
20260831152137 53 292 0.0 2.6 0.00 0.38 0.00 98 1019.9
20260831151630 52 292 0.0 0.0 0.00 0.38 0.00 98 1020.1
20260831151124 52 292 0.0 0.0 0.00 0.39 0.00 98 1020.1
20260831150622 51 292 0.0 0.0 0.00 0.39 0.00 98 1019.9
20260831150109 51 292 0.0 0.0 0.00 0.39 0.00 98 1019.9
20260831145609 51 292 0.0 0.0 0.00 0.39 0.00 98 1019.8
20260831145055 50 292 0.0 0.0 0.00 0.39 0.00 98 1019.8
20260831144555 50 292 0.0 0.0 0.00 0.39 0.00 98 1019.8
20260831144050 50 292 0.0 0.0 0.00 0.39 0.00 98 1019.9
20260831143550 49 292 0.0 0.0 0.00 0.40 0.00 98 1019.8
20260831143040 49 292 0.0 0.0 0.00 0.40 0.00 98 1019.8
20260831142536 49 292 0.0 0.0 0.00 0.40 0.00 98 1019.7
20260831142254 49 292 0.0 0.0 0.00 0.41 0.00 98 1019.7
20260831141531 49 292 0.0 0.0 0.00 0.41 0.00 98 1019.6
20260831141030 48 292 0.0 0.0 0.00 0.41 0.00 98 1019.6
20260831140531 48 292 0.0 0.0 0.00 0.41 0.00 98 1019.5
20260831140030 48 292 0.0 0.0 0.00 0.41 0.00 98 1019.5
20260831140013 48 292 0.0 0.0 0.00 0.41 0.00 97 1019.5
20260831135035 48 292 0.0 0.0 0.00 0.41 0.00 97 1019.5
20260831134530 48 292 0.0 0.0 0.00 0.42 0.00 97 1019.4
20260831134027 48 292 0.0 0.0 0.00 0.42 0.00 97 1019.3
20260831133527 48 292 0.0 0.0 0.00 0.42 0.00 97 1019.3
20260831133017 48 292 0.0 0.0 0.00 0.43 0.00 97 1019.3
20260831132512 47 292 0.0 0.0 0.00 0.43 0.00 97 1019.3
20260831132012 47 292 0.0 0.0 0.00 0.43 0.00 97 1019.3
20260831131508 47 292 0.0 0.0 0.00 0.43 0.00 97 1019.3
20260831131008 48 292 0.0 0.0 0.00 0.43 0.00 97 1019.3
20260831130503 48 292 0.0 0.0 0.00 0.43 0.00 97 1019.3
20260831130004 48 292 0.0 0.0 0.00 0.43 0.00 97 1019.2
20260831125503 48 292 0.0 0.0 0.00 0.43 0.00 97 1019.2
20260831125004 48 292 0.0 0.0 0.00 0.43 0.00 97 1019.2
20260831124503 48 292 0.0 0.0 0.00 0.43 0.00 97 1019.1
20260831124002 48 292 0.0 0.0 0.00 0.43 0.00 97 1019.1
20260831123444 48 292 0.0 0.0 0.00 0.43 0.00 97 1019.1
20260831122939 48 292 0.0 0.0 0.00 0.43 0.00 97 1019.2
20260831122433 48 292 0.0 0.0 0.00 0.43 0.00 97 1019.1
20260831121936 48 292 0.0 0.0 0.00 0.43 0.00 97 1019.1
20260831121429 48 292 0.0 0.0 0.00 0.43 0.00 97 1019.1
20260831120932 48 292 0.0 0.0 0.00 0.43 0.00 97 1018.9
20260831120419 48 292 0.0 0.0 0.00 0.43 0.00 97 1019.1
20260831115909 48 292 0.0 0.0 0.00 0.43 0.00 97 1018.9
20260831115407 48 292 0.0 0.0 0.00 0.43 0.00 97 1018.9
20260831115345 48 292 0.0 0.0 0.00 0.43 0.00 97 1018.9
20260831114354 48 292 0.0 0.0 0.00 0.43 0.00 97 1019.1
20260831113850 48 292 0.0 0.0 0.00 0.43 0.00 97 1018.9
20260831113339 48 292 0.0 0.0 0.00 0.43 0.00 97 1018.9
20260831112843 48 292 0.0 0.0 0.00 0.43 0.00 97 1018.8
20260831112551 48 292 0.0 0.0 0.00 0.43 0.00 97 1018.8
20260831111830 48 292 0.0 0.0 0.00 0.43 0.00 97 1018.8
20260831111551 48 292 0.0 0.0 0.00 0.43 0.00 97 1018.8
20260831110825 48 292 0.0 0.0 0.00 0.43 0.00 97 1018.7
20260831110325 48 292 0.0 0.0 0.00 0.43 0.00 97 1018.8
20260831105826 48 292 0.0 0.0 0.00 0.43 0.00 97 1018.8
20260831105329 48 292 0.0 0.0 0.00 0.43 0.00 97 1018.7
20260831104826 48 292 0.0 0.0 0.00 0.43 0.00 97 1018.6
20260831104322 48 292 0.0 0.0 0.00 0.43 0.00 97 1018.7
20260831103819 48 292 0.0 0.0 0.00 0.43 0.00 97 1018.8
20260831103316 48 292 0.0 0.0 0.00 0.43 0.00 97 1018.8
20260831103013 48 292 0.0 0.0 0.00 0.43 0.00 97 1018.8
20260831102251 48 292 0.0 0.0 0.00 0.43 0.00 97 1018.7
20260831101746 48 292 0.0 0.0 0.00 0.43 0.00 97 1018.6
20260831101247 48 292 0.0 0.0 0.00 0.43 0.00 97 1018.6
20260831100742 48 292 0.0 0.0 0.00 0.43 0.00 97 1018.6
20260831100233 48 292 0.0 0.0 0.00 0.43 0.00 97 1018.5
20260831095727 48 292 0.0 0.0 0.00 0.43 0.00 97 1018.5
20260831095227 48 292 0.0 0.0 0.00 0.43 0.00 97 1018.6
20260831094948 48 292 0.0 0.0 0.00 0.43 0.00 97 1018.5
20260831094448 48 292 0.0 0.0 0.00 0.43 0.00 97 1018.6
20260831093723 48 292 0.0 0.0 0.00 0.43 0.00 97 1018.6
20260831093223 48 292 0.0 0.0 0.00 0.43 0.00 97 1018.6
20260831092726 48 292 0.0 0.0 0.00 0.43 0.00 97 1018.6
20260831092706 48 292 0.0 0.0 0.00 0.43 0.00 97 1018.6
20260831091708 48 292 0.0 0.0 0.00 0.43 0.00 97 1018.6
20260831091208 48 292 0.0 0.0 0.00 0.43 0.00 97 1018.5
20260831090709 48 292 0.0 0.0 0.00 0.43 0.00 97 1018.5
20260831090436 48 292 0.0 0.0 0.00 0.43 0.00 97 1018.5
20260831085710 48 292 0.0 0.0 0.00 0.43 0.00 97 1018.5
20260831085210 48 292 0.0 0.0 0.00 0.43 0.00 97 1018.5
20260831084709 48 292 0.0 0.0 0.00 0.43 0.00 97 1018.4
20260831084159 48 292 0.0 0.0 0.00 0.43 0.00 97 1018.5
20260831083650 48 292 0.0 0.0 0.00 0.43 0.00 97 1018.4
20260831083153 48 292 0.0 0.0 0.00 0.43 0.00 97 1018.3
20260831082650 48 292 0.0 0.0 0.00 0.43 0.00 97 1018.3
20260831082145 48 292 0.0 0.0 0.00 0.43 0.00 97 1018.3
20260831081645 48 292 0.0 0.0 0.00 0.43 0.00 97 1018.3
20260831081141 48 292 0.0 0.0 0.00 0.43 0.00 97 1018.2
20260831080644 48 292 0.0 0.0 0.00 0.43 0.00 97 1018.1
20260831080353 48 292 0.0 0.0 0.00 0.43 0.00 97 1018.2
20260831075856 48 292 0.0 0.0 0.00 0.43 0.00 97 1018.1
20260831075131 48 292 0.0 0.0 0.00 0.43 0.00 97 1018.1
20260831074631 48 292 0.0 0.0 0.00 0.43 0.00 97 1018.1
20260831074126 48 292 0.0 0.0 0.00 0.43 0.00 97 1018.2
20260831073846 48 292 0.0 0.0 0.00 0.43 0.00 97 1018.3
20260831073117 48 292 0.0 0.0 0.00 0.43 0.00 97 1018.2
20260831072617 48 292 0.0 1.7 0.00 0.43 0.00 97 1018.1
20260831072120 48 292 0.0 1.7 0.00 0.43 0.00 97 1017.9
20260831071844 48 292 0.0 0.0 0.00 0.43 0.00 97 1017.8
20260831071108 48 292 0.0 0.0 0.00 0.43 0.00 97 1017.9
20260831070558 48 292 0.0 0.0 0.00 0.43 0.00 97 1017.9
20260831070056 48 292 0.0 0.0 0.00 0.43 0.00 97 1017.9
20260831065545 48 292 0.0 0.0 0.00 0.43 0.00 97 1018.2
20260831065246 48 292 0.0 0.0 0.00 0.43 0.00 97 1018.2
20260831064528 48 292 0.0 0.0 0.00 0.43 0.00 97 1018.2
20260831064028 48 292 0.0 0.0 0.00 0.43 0.00 97 1018.2
20260831063750 48 292 0.0 0.0 0.00 0.43 0.00 97 1018.2
20260831063019 48 292 0.0 0.0 0.00 0.43 0.00 97 1018.2
20260831062518 48 292 0.0 0.0 0.00 0.43 0.00 97 1018.3
20260831062014 48 292 0.0 0.0 0.00 0.43 0.00 97 1018.3
20260831061509 48 292 0.0 0.0 0.00 0.43 0.00 97 1018.3
20260831061003 48 292 0.0 0.0 0.00 0.43 0.00 97 1018.3
20260831060459 48 292 0.0 0.0 0.00 0.43 0.00 97 1018.2
20260831060002 48 292 0.0 0.0 0.00 0.43 0.43 97 1018.3
20260831055454 48 292 0.0 0.0 0.00 0.43 0.43 97 1018.5
20260831054954 48 292 0.0 0.0 0.00 0.43 0.43 97 1018.5
20260831054713 48 292 0.0 0.9 0.00 0.43 0.43 97 1018.5
20260831053949 48 292 0.0 0.9 0.00 0.43 0.43 97 1018.6
20260831053447 48 292 0.0 2.6 0.00 0.43 0.43 97 1018.6
20260831052945 49 292 0.0 2.6 0.00 0.43 0.43 97 1018.6
20260831052445 49 292 0.0 0.0 0.00 0.43 0.43 97 1018.7
20260831052207 48 292 0.0 0.0 0.00 0.43 0.43 97 1018.6
20260831051927 48 292 0.0 0.0 0.00 0.43 0.43 97 1018.6
20260831050933 48 292 0.0 0.0 0.00 0.43 0.43 97 1018.7
20260831050431 48 292 0.0 0.0 0.00 0.43 0.43 97 1018.7
20260831045926 48 292 0.0 0.0 0.00 0.43 0.43 97 1018.8
20260831045421 48 292 0.0 0.0 0.00 0.43 0.43 97 1018.9
20260831044916 48 292 0.0 0.0 0.00 0.43 0.43 97 1018.9
20260831044416 48 292 0.0 0.0 0.00 0.43 0.43 97 1018.8
20260831043917 48 292 0.0 0.0 0.00 0.43 0.43 97 1018.7
20260831043634 48 292 0.0 0.0 0.00 0.43 0.43 97 1018.7
20260831042911 48 292 0.0 0.0 0.00 0.43 0.43 97 1018.7
20260831042406 48 292 0.0 0.0 0.00 0.43 0.43 97 1018.7
20260831041903 48 292 0.0 0.0 0.00 0.43 0.43 97 1018.7
20260831041631 48 292 0.0 0.9 0.00 0.43 0.43 97 1018.6
20260831040857 48 292 0.0 0.9 0.00 0.43 0.43 97 1018.6
20260831040628 48 292 0.0 0.0 0.00 0.43 0.43 97 1018.5
20260831035843 48 292 0.0 0.0 0.00 0.43 0.43 97 1018.6
20260831035829 48 292 0.0 0.0 0.00 0.43 0.43 97 1018.7
20260831034828 48 292 0.0 0.0 0.00 0.43 0.43 97 1018.6
20260831034328 48 292 0.0 0.0 0.00 0.43 0.43 97 1018.6
20260831033823 48 292 0.0 0.0 0.00 0.43 0.43 96 1018.5
20260831033323 48 292 0.0 0.0 0.00 0.43 0.43 96 1018.5
20260831033045 48 292 0.0 1.7 0.00 0.43 0.43 96 1018.5
20260831032323 48 292 0.0 1.7 0.00 0.43 0.43 96 1018.5
20260831032038 48 292 0.0 0.0 0.00 0.43 0.43 96 1018.6
20260831031309 49 292 0.0 0.0 0.00 0.43 0.43 96 1018.4
20260831030804 49 292 0.0 0.0 0.00 0.43 0.43 96 1018.4
20260831030254 49 292 0.0 0.0 0.00 0.43 0.43 96 1018.4
20260831030024 49 292 0.0 0.0 0.00 0.43 0.43 96 1018.3
20260831025511 49 292 0.0 0.0 0.00 0.43 0.43 96 1018.3
20260831024745 49 292 0.0 0.0 0.00 0.43 0.43 96 1018.2
20260831024244 49 292 0.0 0.0 0.00 0.43 0.43 96 1018.2
20260831023742 49 292 0.0 0.0 0.00 0.43 0.43 96 1018.2
20260831023235 49 292 0.0 0.0 0.00 0.43 0.43 96 1018.1
20260831022735 49 292 0.0 0.0 0.00 0.43 0.43 96 1017.9
20260831022238 49 292 0.0 0.0 0.00 0.43 0.43 96 1017.8
20260831021714 49 292 0.0 0.0 0.00 0.43 0.43 96 1017.8
20260831021429 49 292 0.0 0.0 0.00 0.43 0.43 96 1017.8
20260831020934 49 292 0.0 0.0 0.00 0.43 0.43 96 1017.7
20260831020149 49 292 0.0 0.0 0.00 0.43 0.43 96 1017.7
20260831015914 49 292 0.0 0.0 0.00 0.43 0.43 96 1017.7
20260831015145 49 292 0.0 0.0 0.00 0.43 0.43 96 1017.7
20260831014648 49 292 0.0 0.0 0.00 0.43 0.43 96 1017.7
20260831014358 49 292 0.0 0.9 0.00 0.43 0.43 96 1017.7
20260831013640 49 292 0.0 0.9 0.00 0.43 0.43 96 1017.8
20260831013136 50 291 0.0 0.9 0.00 0.43 0.43 96 1017.8
20260831012636 50 292 0.0 0.0 0.00 0.43 0.43 96 1017.7
20260831012139 50 292 0.0 0.0 0.00 0.43 0.43 96 1017.7
20260831011631 50 292 0.0 0.0 0.00 0.43 0.43 96 1017.6
20260831011121 50 292 0.0 0.0 0.00 0.43 0.43 96 1017.7
20260831010844 50 292 0.0 0.0 0.00 0.43 0.43 96 1017.6
20260831010121 50 292 0.0 0.0 0.00 0.43 0.43 96 1017.6
20260831010109 51 292 0.0 0.0 0.00 0.43 0.43 96 1017.6
20260831005117 51 292 0.0 0.0 0.00 0.43 0.43 96 1017.6
20260831004606 51 292 0.0 0.0 0.00 0.43 0.43 96 1017.6
20260831004315 51 292 0.0 0.0 0.00 0.43 0.43 96 1017.6
20260831003556 51 292 0.0 0.0 0.00 0.43 0.43 96 1017.6
20260831003055 51 292 0.0 0.0 0.00 0.43 0.43 96 1017.6
20260831002542 51 292 0.0 0.0 0.00 0.43 0.43 96 1017.6
20260831002042 51 292 0.0 0.0 0.00 0.43 0.43 96 1017.6
20260831001805 51 292 0.0 0.0 0.00 0.43 0.43 96 1017.6
20260831001032 51 292 0.0 0.0 0.00 0.43 0.43 96 1017.5
20260831000532 51 292 0.0 0.9 0.00 0.43 0.43 96 1017.5
20260831000028 51 292 0.0 0.9 0.00 0.43 0.43 96 1017.4
20260830235522 51 292 0.0 0.0 0.00 0.43 0.43 96 1017.4
20260830235017 51 292 0.0 0.0 0.00 0.43 0.43 96 1017.4
20260830234513 51 292 0.0 0.0 0.00 0.43 0.43 96 1017.5
20260830234234 51 292 0.0 0.0 0.00 0.43 0.43 96 1017.5
20260830233513 51 292 0.0 0.0 0.00 0.43 0.43 96 1017.4
20260830233008 51 292 0.0 0.0 0.00 0.43 0.43 96 1017.4
20260830232503 51 292 0.0 0.0 0.00 0.43 0.43 96 1017.4
20260830232003 51 292 0.0 0.0 0.00 0.43 0.43 96 1017.5
20260830231506 51 292 0.0 0.9 0.00 0.43 0.43 96 1017.5
20260830231003 51 292 0.0 0.9 0.00 0.43 0.43 96 1017.5
20260830230459 51 292 0.0 0.0 0.00 0.43 0.43 96 1017.5
20260830225955 51 292 0.0 0.0 0.00 0.43 0.43 96 1017.4
20260830225454 51 292 0.0 0.0 0.00 0.43 0.43 96 1017.5
20260830225438 51 292 0.0 0.0 0.00 0.43 0.43 96 1017.5
20260830224450 50 292 0.0 0.0 0.00 0.43 0.43 96 1017.6
20260830223949 50 292 0.0 0.0 0.00 0.43 0.43 96 1017.5
20260830223450 50 292 0.0 0.0 0.00 0.43 0.43 96 1017.6
20260830222939 50 292 0.0 0.0 0.00 0.43 0.43 96 1017.7
20260830222430 50 292 0.0 0.0 0.00 0.43 0.43 96 1017.7
20260830221930 50 292 0.0 0.0 0.00 0.43 0.43 96 1017.7
20260830221428 50 292 0.0 0.0 0.00 0.43 0.43 96 1017.7
20260830220926 50 292 0.0 0.0 0.00 0.43 0.43 96 1017.6
20260830220635 49 292 0.0 0.0 0.00 0.43 0.43 96 1017.7
20260830215906 49 292 0.0 0.0 0.00 0.43 0.43 96 1017.7
20260830215400 50 292 0.0 0.0 0.00 0.43 0.43 96 1017.7
20260830214904 50 292 0.0 0.0 0.00 0.43 0.43 96 1017.7
20260830214402 49 292 0.0 0.0 0.00 0.43 0.43 96 1017.6
20260830213901 49 292 0.0 0.0 0.00 0.43 0.43 96 1017.8
20260830213616 49 292 0.0 0.0 0.00 0.43 0.43 96 1017.7
20260830212857 49 292 0.0 1.7 0.00 0.43 0.43 96 1017.7
20260830212352 49 292 0.0 2.6 0.00 0.43 0.43 96 1017.6
20260830211855 49 292 0.9 2.6 0.00 0.43 0.43 96 1017.7
20260830211344 49 355 0.0 0.0 0.00 0.43 0.43 96 1017.7
20260830210834 49 355 0.0 0.0 0.00 0.43 0.43 96 1017.8
20260830210316 49 355 0.0 0.0 0.00 0.43 0.43 95 1017.7
20260830205815 49 355 0.0 0.0 0.00 0.43 0.43 95 1017.6
20260830205257 49 355 0.0 0.0 0.00 0.43 0.43 95 1017.6
20260830204757 49 355 0.0 0.0 0.00 0.43 0.43 95 1017.7
20260830204247 49 355 0.0 0.0 0.00 0.43 0.43 95 1017.4
20260830203746 49 355 0.0 0.0 0.00 0.43 0.43 95 1017.4
20260830203250 49 355 0.0 0.0 0.01 0.43 0.43 95 1017.4
20260830202745 49 355 0.0 0.9 0.01 0.43 0.43 95 1017.4
20260830202238 49 355 0.0 0.9 0.01 0.43 0.43 95 1017.3
20260830201733 49 352 0.0 0.0 0.01 0.43 0.43 95 1017.2
20260830201446 49 352 0.0 0.0 0.02 0.43 0.43 94 1017.0
20260830200729 49 352 0.0 0.0 0.02 0.43 0.43 94 1017.0
20260830200227 49 352 0.0 0.0 0.03 0.43 0.43 94 1016.9
20260830195731 49 352 0.0 0.0 0.03 0.43 0.43 94 1017.0
20260830195457 49 352 0.0 0.0 0.04 0.43 0.43 94 1017.0
20260830194728 49 352 0.0 0.0 0.05 0.43 0.43 94 1017.0
20260830194224 49 352 0.0 1.7 0.06 0.43 0.43 94 1016.9
20260830193721 49 352 0.0 1.7 0.06 0.43 0.43 94 1017.0
20260830193447 49 336 0.0 0.0 0.06 0.42 0.42 95 1016.9
20260830192719 49 336 0.0 1.7 0.07 0.42 0.42 94 1016.9